• En España
  • Lista de países
  • Para 7 días
  • Temperatura del agua
  • Mapa Satelital
  • El tiempo en el mapa
  • Informadores
  • user-avatar
    Iniciar sesión

    Tiempo cada hora Zarechenka

    Hoy, 14 Agosto, Martes

    Tiempo Temperatura Precipitaciones Viento Presión Humedad
    00:00 +17°C° 0 mm 2 mps 743 mmHg 72%
    01:00 +17°C° 0 mm 2 mps 743 mmHg 74%
    02:00 +16°C° 0 mm 1 mps 743 mmHg 76%
    03:00 +16°C° 0 mm 1 mps 743 mmHg 76%
    04:00 +16°C° 0 mm 1 mps 744 mmHg 77%
    05:00 +16°C° 0 mm 1 mps 744 mmHg 79%
    06:00 +16°C° 0 mm 1 mps 744 mmHg 80%
    07:00 +18°C° 0 mm 1 mps 744 mmHg 75%
    08:00 +20°C° 0 mm 1 mps 745 mmHg 70%
    09:00 +20°C° 0 mm 2 mps 745 mmHg 64%
    10:00 +21°C° 0 mm 2 mps 745 mmHg 61%
    11:00 +23°C° 0 mm 2 mps 745 mmHg 58%
    12:00 +24°C° 0 mm 3 mps 745 mmHg 55%
    13:00 +24°C° 0 mm 3 mps 745 mmHg 54%
    14:00 +25°C° 0 mm 3 mps 745 mmHg 53%
    15:00 +25°C° 0 mm 3 mps 745 mmHg 52%
    16:00 +25°C° 0 mm 2 mps 745 mmHg 54%
    17:00 +25°C° 0 mm 2 mps 745 mmHg 56%
    18:00 +25°C° 0 mm 2 mps 745 mmHg 59%
    19:00 +23°C° 0 mm 2 mps 745 mmHg 61%
    20:00 +21°C° 0 mm 2 mps 745 mmHg 64%
    21:00 +19°C° 0 mm 2 mps 745 mmHg 66%
    22:00 +19°C° 0 mm 2 mps 745 mmHg 66%
    23:00 +19°C° 0 mm 3 mps 745 mmHg 67%

    Mañana, 15 Agosto, Miércoles

    Tiempo Temperatura Precipitaciones Viento Presión Humedad
    00:00 +18°C° 0 mm 3 mps 745 mmHg 67%
    01:00 +18°C° 0 mm 3 mps 745 mmHg 69%
    02:00 +18°C° 0 mm 3 mps 744 mmHg 71%
    03:00 +18°C° 0 mm 3 mps 744 mmHg 73%
    04:00 +17°C° 0 mm 3 mps 744 mmHg 76%
    05:00 +17°C° 0 mm 3 mps 744 mmHg 79%
    06:00 +17°C° 0 mm 3 mps 744 mmHg 82%
    07:00 +19°C° 0 mm 3 mps 744 mmHg 79%
    08:00 +21°C° 0 mm 4 mps 744 mmHg 75%
    09:00 +23°C° 0 mm 4 mps 744 mmHg 71%
    10:00 +26°C° 0,4 mm 4 mps 744 mmHg 66%
    11:00 +27°C° 0,4 mm 5 mps 744 mmHg 60%
    12:00 +29°C° 0,4 mm 5 mps 744 mmHg 55%
    13:00 +29°C° 0,1 mm 5 mps 744 mmHg 52%
    14:00 +30°C° 0,1 mm 5 mps 743 mmHg 50%
    15:00 +30°C° 0,1 mm 6 mps 743 mmHg 47%
    16:00 +30°C° 0 mm 5 mps 743 mmHg 51%
    17:00 +29°C° 0 mm 4 mps 743 mmHg 55%
    18:00 +29°C° 0 mm 3 mps 742 mmHg 59%
    19:00 +27°C° 0 mm 4 mps 742 mmHg 61%
    20:00 +26°C° 0 mm 4 mps 742 mmHg 63%
    21:00 +23°C° 0 mm 4 mps 743 mmHg 65%
    22:00 +23°C° 0 mm 4 mps 743 mmHg 66%
    23:00 +22°C° 0 mm 4 mps 743 mmHg 67%

    Pasado mañana, 16 Agosto, Jueves

    Tiempo Temperatura Precipitaciones Viento Presión Humedad
    00:00 +21°C° 0 mm 4 mps 743 mmHg 68%
    01:00 +21°C° 0 mm 3 mps 743 mmHg 70%
    02:00 +20°C° 0 mm 3 mps 743 mmHg 72%
    03:00 +19°C° 0 mm 3 mps 743 mmHg 74%
    04:00 +19°C° 0 mm 2 mps 743 mmHg 76%
    05:00 +19°C° 0 mm 2 mps 743 mmHg 78%
    06:00 +19°C° 0 mm 2 mps 743 mmHg 80%
    07:00 +20°C° 0,1 mm 2 mps 743 mmHg 78%
    08:00 +21°C° 0,1 mm 2 mps 743 mmHg 76%
    09:00 +23°C° 0,1 mm 2 mps 744 mmHg 74%
    10:00 +24°C° 0,1 mm 2 mps 744 mmHg 71%
    11:00 +25°C° 0,1 mm 2 mps 744 mmHg 68%
    12:00 +26°C° 0,1 mm 2 mps 744 mmHg 65%
    13:00 +26°C° 0,7 mm 2 mps 744 mmHg 67%
    14:00 +26°C° 0,7 mm 3 mps 744 mmHg 68%
    15:00 +26°C° 0,7 mm 3 mps 744 mmHg 69%
    16:00 +26°C° 0,2 mm 2 mps 744 mmHg 70%
    17:00 +26°C° 0,2 mm 2 mps 744 mmHg 72%
    18:00 +25°C° 0,2 mm 2 mps 744 mmHg 73%
    19:00 +24°C° 0 mm 1 mps 744 mmHg 76%
    20:00 +23°C° 0 mm 1 mps 744 mmHg 80%
    21:00 +22°C° 0 mm 1 mps 745 mmHg 83%
    22:00 +21°C° 0 mm 1 mps 745 mmHg 84%
    23:00 +21°C° 0 mm 1 mps 745 mmHg 85%

    17 Agosto, Viernes

    Tiempo Temperatura Precipitaciones Viento Presión Humedad
    00:00 +21°C° 0 mm 1 mps 745 mmHg 87%
    01:00 +20°C° 0,4 mm 1 mps 745 mmHg 88%
    02:00 +20°C° 0,4 mm 1 mps 745 mmHg 90%
    03:00 +19°C° 0,4 mm 2 mps 746 mmHg 92%
    04:00 +18°C° 0,3 mm 2 mps 746 mmHg 93%
    05:00 +18°C° 0,3 mm 2 mps 746 mmHg 94%
    06:00 +18°C° 0,3 mm 3 mps 746 mmHg 95%
    07:00 +19°C° 0,1 mm 3 mps 746 mmHg 92%
    08:00 +20°C° 0,1 mm 3 mps 747 mmHg 89%
    09:00 +21°C° 0,1 mm 4 mps 747 mmHg 85%
    10:00 +22°C° 0,6 mm 4 mps 747 mmHg 81%
    11:00 +23°C° 0,6 mm 4 mps 747 mmHg 76%
    12:00 +25°C° 0,6 mm 4 mps 747 mmHg 71%
    13:00 +25°C° 1,1 mm 4 mps 747 mmHg 70%
    14:00 +25°C° 1,1 mm 4 mps 746 mmHg 70%
    15:00 +25°C° 1,1 mm 4 mps 746 mmHg 69%
    16:00 +25°C° 0,4 mm 3 mps 746 mmHg 70%
    17:00 +25°C° 0,4 mm 3 mps 746 mmHg 71%
    18:00 +24°C° 0,4 mm 3 mps 746 mmHg 73%
    19:00 +22°C° 0 mm 3 mps 746 mmHg 75%
    20:00 +21°C° 0 mm 3 mps 747 mmHg 78%
    21:00 +19°C° 0 mm 3 mps 747 mmHg 80%
    22:00 +19°C° 0 mm 3 mps 747 mmHg 80%
    23:00 +18°C° 0 mm 3 mps 747 mmHg 80%

    18 Agosto, Sábado

    Tiempo Temperatura Precipitaciones Viento Presión Humedad
    00:00 +18°C° 0 mm 3 mps 747 mmHg 80%
    01:00 +17°C° 0 mm 3 mps 747 mmHg 82%
    02:00 +17°C° 0 mm 3 mps 747 mmHg 84%
    03:00 +17°C° 0 mm 3 mps 747 mmHg 86%
    04:00 +16°C° 0 mm 3 mps 748 mmHg 87%
    05:00 +16°C° 0 mm 3 mps 748 mmHg 89%
    06:00 +16°C° 0 mm 3 mps 748 mmHg 90%
    07:00 +17°C° 0 mm 4 mps 748 mmHg 84%
    08:00 +19°C° 0 mm 4 mps 748 mmHg 79%
    09:00 +20°C° 0 mm 4 mps 748 mmHg 73%
    10:00 +21°C° 0 mm 4 mps 748 mmHg 68%
    11:00 +22°C° 0 mm 4 mps 748 mmHg 63%
    12:00 +23°C° 0 mm 4 mps 748 mmHg 58%
    13:00 +25°C° 0 mm 4 mps 748 mmHg 57%
    14:00 +25°C° 0 mm 4 mps 748 mmHg 56%
    15:00 +25°C° 0 mm 4 mps 748 mmHg 54%
    16:00 +25°C° 0 mm 4 mps 748 mmHg 58%
    17:00 +25°C° 0 mm 3 mps 748 mmHg 61%
    18:00 +24°C° 0 mm 3 mps 748 mmHg 64%
    19:00 +22°C° 0 mm 3 mps 748 mmHg 66%
    20:00 +20°C° 0 mm 3 mps 748 mmHg 68%
    21:00 +19°C° 0 mm 3 mps 748 mmHg 71%
    22:00 +18°C° 0 mm 3 mps 748 mmHg 70%
    23:00 +17°C° 0 mm 3 mps 748 mmHg 70%

    19 Agosto, Domingo

    Tiempo Temperatura Precipitaciones Viento Presión Humedad
    00:00 +17°C° 0 mm 3 mps 748 mmHg 70%
    01:00 +16°C° 0 mm 3 mps 748 mmHg 71%
    02:00 +16°C° 0 mm 3 mps 748 mmHg 72%
    03:00 +14°C° 0 mm 3 mps 748 mmHg 73%
    04:00 +14°C° 0 mm 3 mps 748 mmHg 75%
    05:00 +14°C° 0 mm 3 mps 748 mmHg 76%
    06:00 +14°C° 0 mm 3 mps 748 mmHg 77%
    07:00 +15°C° 0 mm 4 mps 748 mmHg 74%
    08:00 +18°C° 0 mm 4 mps 748 mmHg 71%
    09:00 +19°C° 0 mm 4 mps 748 mmHg 67%
    10:00 +21°C° 0 mm 4 mps 748 mmHg 64%
    11:00 +22°C° 0 mm 4 mps 748 mmHg 60%
    12:00 +23°C° 0 mm 4 mps 748 mmHg 57%
    13:00 +25°C° 0 mm 4 mps 747 mmHg 55%
    14:00 +25°C° 0 mm 4 mps 747 mmHg 54%
    15:00 +26°C° 0 mm 4 mps 747 mmHg 52%
    16:00 +25°C° 0 mm 4 mps 747 mmHg 55%
    17:00 +25°C° 0 mm 3 mps 746 mmHg 58%
    18:00 +25°C° 0 mm 3 mps 746 mmHg 61%
    19:00 +22°C° 0 mm 3 mps 746 mmHg 63%
    20:00 +21°C° 0 mm 3 mps 746 mmHg 64%
    21:00 +20°C° 0 mm 3 mps 746 mmHg 66%
    22:00 +19°C° 0 mm 3 mps 746 mmHg 65%
    23:00 +19°C° 0 mm 3 mps 746 mmHg 65%
    Mostrar más